Location: Banios
(43.0451°N, 0.2335°E)
Time: 03:40:01
(UTC+00:00)

Cosmos 1689 Rocket - Pass Details

Date: 25 January 2021
Orbit: 353 x 367 km, 97.5° (Epoch: 26 February)

Event Time Altitude Azimuth Distance (km) Brightness Sun altitude
Rises 05:01:08 0° 139° (SE) 2,217 6.5 -25.5°
Reaches altitude 10° 05:03:20 10° 123° (ESE) 1,370 5.6 -25.1°
Maximum altitude 05:05:38 22° 70° (ENE) 885 4.5 -24.6°
Enters shadow 05:06:15 20° 51° (NE) 927 4.5 -24.5°
